PBO Station Position Time Series. Reference Frame : NAM14
Format Version,1.1.1
4-character ID,P386
Station name,GrantApt__OR2007
Begin Date, 2007-07-14
End Date, 2023-06-26
Release Date, 2023-06-27
Reference position, 44.4028275428 North Latitude, -118.9678176216 East Longitude, 1103.50513 meters elevation,
Date, North (mm), East (mm), Vertical (mm), North Std. Deviation (mm), East Std. Deviation (mm),              Vertical Std. Deviation (mm), Quality,
2007-07-14,0.00, 0.00, 0.00, 2.15, 1.60, 7.16, repro,
2007-07-15,0.02, 0.01, 1.97, 2.16, 1.61, 7.16, repro,
2007-07-16,0.17, -0.85, -4.81, 2.15, 1.57, 7.11, repro,
2007-07-17,-1.94, -0.51, -2.34, 2.14, 1.57, 7.07, repro,
2007-07-18,0.61, 0.28, -3.73, 2.14, 1.56, 7.06, repro,
2007-07-19,1.74, -0.96, -1.93, 2.13, 1.57, 7.02, repro,
2007-07-20,0.62, -1.47, 3.97, 2.15, 1.61, 7.13, repro,
2007-07-21,-1.51, -0.18, 4.27, 2.16, 1.61, 7.19, repro,
2007-07-22,0.06, -0.73, 1.34, 2.19, 1.63, 7.28, repro,
2007-07-23,-0.52, 0.19, 0.88, 2.18, 1.62, 7.23, repro,
2007-07-24,1.92, -1.88, 3.54, 2.17, 1.61, 7.16, repro,
2007-07-25,-0.16, -1.03, 5.35, 2.13, 1.55, 6.97, repro,
2007-07-26,-0.31, -0.76, 0.65, 2.38, 1.82, 8.09, repro,
2007-07-27,0.72, -1.33, 3.39, 2.19, 1.63, 7.31, repro,
2007-07-28,0.26, -0.42, -1.39, 2.18, 1.62, 7.24, repro,
2007-07-29,-0.68, -1.91, 6.21, 2.16, 1.63, 7.22, repro,
2007-07-30,0.21, -1.50, 7.33, 2.16, 1.60, 7.12, repro,
2007-07-31,-0.11, -0.94, -1.35, 2.12, 1.55, 6.98, repro,
2007-08-01,-1.65, -0.26, 6.09, 2.15, 1.56, 7.05, repro,
2007-08-02,-0.88, 0.26, 6.01, 2.18, 1.61, 7.23, repro,
2007-08-03,1.61, -0.74, 0.70, 2.11, 1.55, 6.95, repro,
2007-08-04,-0.39, -1.86, 12.36, 2.12, 1.56, 6.99, repro,
2007-08-05,0.90, -1.00, 10.96, 2.13, 1.56, 6.97, repro,
2007-08-06,0.28, -1.61, 8.67, 2.18, 1.61, 7.22, repro,
2007-08-07,0.49, -0.69, 5.31, 2.19, 1.60, 7.20, repro,
2007-08-08,-1.20, -0.82, 3.94, 2.12, 1.55, 6.94, repro,
2007-08-09,0.00, -0.36, 6.05, 2.11, 1.55, 6.97, repro,
2007-08-10,0.87, -2.16, 5.00, 2.11, 1.55, 6.97, repro,
2007-08-11,-1.17, -1.10, 9.48, 2.11, 1.55, 6.96, repro,
2007-08-12,-0.13, -2.37, 11.11, 2.12, 1.55, 6.96, repro,
2007-08-13,0.64, -1.62, 5.09, 2.11, 1.54, 6.89, repro,
2007-08-14,-1.26, 0.88, 2.05, 2.25, 1.66, 7.39, repro,
2007-08-15,-0.38, -1.36, 6.83, 2.26, 1.67, 7.45, repro,
2007-08-16,-0.01, -1.93, 22.06, 2.21, 1.62, 7.28, repro,
2007-08-17,-0.69, -1.49, 5.90, 2.29, 1.66, 7.44, repro,
2007-08-18,-0.10, -0.68, 7.99, 2.26, 1.64, 7.48, repro,
2007-08-19,-1.30, -0.12, 11.88, 2.26, 1.63, 7.44, repro,
2007-08-20,-0.84, -0.54, -0.16, 2.23, 1.61, 7.28, repro,
2007-08-21,-1.35, -0.88, 2.78, 2.21, 1.61, 7.28, repro,
2007-08-22,1.03, -1.48, 4.06, 2.21, 1.59, 7.18, repro,
2007-08-23,-0.30, -1.61, 9.32, 2.18, 1.56, 7.04, repro,
2007-08-24,-1.34, -0.47, 10.23, 2.28, 1.63, 7.30, repro,
2007-08-25,-0.04, -0.80, 7.04, 2.21, 1.62, 7.25, repro,
2007-08-26,0.41, -0.09, 6.27, 2.24, 1.66, 7.35, repro,
2007-08-27,-0.02, -1.48, 4.92, 2.26, 1.67, 7.44, repro,
2007-08-28,-0.53, -0.72, 4.07, 2.24, 1.63, 7.33, repro,
2007-08-29,0.16, -0.37, 1.68, 2.22, 1.62, 7.27, repro,
2007-08-30,-1.96, -1.21, 7.90, 2.23, 1.63, 7.33, repro,
2007-08-31,-1.73, -0.17, 7.24, 2.31, 1.72, 7.66, repro,
2007-09-01,0.74, -2.75, 9.80, 2.21, 1.63, 7.25, repro,
2007-09-02,0.24, -0.86, 8.94, 2.24, 1.64, 7.33, repro,
2007-09-03,-0.66, -2.04, 10.06, 2.23, 1.62, 7.26, repro,
2007-09-04,0.15, -2.54, 15.29, 2.23, 1.63, 7.27, repro,
2007-09-05,-1.36, -1.93, 15.37, 2.24, 1.66, 7.43, repro,
2007-09-06,-0.61, -1.79, 7.14, 2.20, 1.61, 7.19, repro,
2007-09-07,-1.61, -0.91, 4.26, 2.21, 1.61, 7.18, repro,
2007-09-08,0.06, -0.99, 4.21, 2.35, 1.71, 7.72, repro,
2007-09-09,-0.03, -0.76, 5.11, 2.30, 1.71, 7.56, repro,
2007-09-10,-0.56, -1.20, 2.21, 2.22, 1.63, 7.24, repro,
2007-09-11,-1.04, -1.64, 3.90, 2.22, 1.62, 7.21, repro,
2007-09-12,-0.60, -1.06, 4.81, 2.34, 1.73, 7.75, repro,
2007-09-13,-0.10, -1.26, 9.69, 2.27, 1.67, 7.45, repro,
2007-09-14,0.50, -1.97, 12.25, 2.27, 1.67, 7.46, repro,
2007-09-15,0.89, -1.18, 13.39, 2.30, 1.65, 7.48, repro,
2007-09-16,-1.45, -1.22, 2.58, 2.23, 1.63, 7.22, repro,
2007-09-17,0.13, -2.87, 6.45, 2.32, 1.71, 7.60, repro,
2007-09-18,0.25, -0.75, 1.99, 2.17, 1.62, 7.14, repro,
2007-09-19,0.72, -1.64, 3.60, 2.13, 1.55, 6.94, repro,
2007-09-20,-0.57, -1.25, 9.26, 2.17, 1.58, 7.14, repro,
2007-09-21,-1.25, -0.54, 7.57, 2.21, 1.59, 7.18, repro,
2007-09-22,0.26, -2.23, 8.83, 2.22, 1.60, 7.16, repro,
2007-09-23,-1.07, -1.53, 9.86, 2.30, 1.65, 7.41, repro,
2007-09-24,-1.40, 0.20, 3.21, 2.28, 1.61, 7.33, repro,
2007-09-25,-1.72, -0.80, 3.88, 2.21, 1.60, 7.23, repro,
2007-09-26,-1.71, -1.43, 9.42, 2.24, 1.56, 7.09, repro,
2007-09-27,-1.08, -0.76, 6.60, 2.21, 1.59, 7.18, repro,
2007-09-28,-0.42, 0.06, 9.97, 2.28, 1.70, 7.50, repro,
2007-09-29,-0.15, -1.56, 5.15, 2.23, 1.64, 7.28, repro,
2007-09-30,-0.68, -2.59, 19.27, 2.24, 1.65, 7.34, repro,
2007-10-01,0.37, -1.13, 6.86, 2.21, 1.65, 7.28, repro,
2007-10-02,-2.35, -1.69, 10.34, 2.24, 1.68, 7.43, repro,
2007-10-03,-1.32, -0.86, 15.44, 2.21, 1.61, 7.26, repro,
2007-10-04,-0.37, -0.77, 11.89, 2.28, 1.64, 7.46, repro,
2007-10-05,-0.52, -0.84, 12.22, 2.27, 1.69, 7.55, repro,
2007-10-06,0.71, -0.98, 10.44, 2.25, 1.66, 7.41, repro,
2007-10-07,-1.57, -1.16, 2.68, 2.35, 1.74, 7.70, repro,
2007-10-08,-1.11, -0.72, 1.19, 2.50, 1.76, 8.01, repro,
2007-10-09,-4.31, 1.44, 7.42, 2.43, 1.82, 8.06, repro,
2007-10-10,-2.02, 1.04, 10.98, 2.38, 1.69, 7.69, repro,
2007-10-11,-0.35, -0.66, 6.95, 2.24, 1.65, 7.34, repro,
2007-10-12,-0.53, -2.42, 6.66, 2.27, 1.68, 7.46, repro,
2007-10-13,-0.62, -1.12, 6.77, 2.16, 1.60, 7.12, repro,
2007-10-14,-0.34, -0.79, 2.84, 2.15, 1.59, 7.07, repro,
2007-10-15,-2.06, -1.37, 14.98, 2.17, 1.60, 7.12, repro,
2007-10-16,-1.22, -0.82, 4.67, 2.19, 1.59, 7.19, repro,
2007-10-17,-0.28, -0.35, 11.43, 2.18, 1.62, 7.26, repro,
2007-10-18,-0.97, -0.65, 14.83, 2.16, 1.59, 7.11, repro,
2007-10-19,3.88, 1.50, 21.95, 2.17, 1.60, 7.16, repro,
2007-10-20,-0.24, -1.30, 12.31, 2.18, 1.62, 7.21, repro,
2007-10-21,-0.46, -0.65, 1.88, 2.15, 1.58, 7.05, repro,
2007-10-22,-1.71, -0.22, 0.93, 2.15, 1.58, 7.12, repro,
2007-10-23,-0.62, -0.24, -1.40, 2.24, 1.64, 7.33, repro,
2007-10-24,2.92, 2.28, 0.46, 2.26, 1.69, 7.53, repro,
2007-10-25,-1.50, -0.91, 0.57, 2.16, 1.59, 7.09, repro,
2007-10-26,-0.68, -1.07, 0.80, 2.16, 1.63, 7.20, repro,
2007-10-27,-1.28, -0.09, -0.06, 2.21, 1.63, 7.32, repro,
2007-10-28,-0.72, 0.20, 0.93, 2.19, 1.60, 7.18, repro,
2007-10-29,-0.41, -0.11, -2.18, 2.17, 1.60, 7.13, repro,
2007-10-30,-0.63, -1.41, -2.99, 2.15, 1.59, 7.10, repro,
2007-10-31,-1.13, -0.46, -1.32, 2.21, 1.63, 7.27, repro,
2007-11-01,-0.61, -0.36, 2.92, 2.11, 1.56, 6.95, repro,
2007-11-02,-0.67, -0.56, 1.58, 2.12, 1.56, 6.94, repro,
2007-11-03,-0.31, -0.87, -5.16, 2.16, 1.57, 7.06, repro,
2007-11-04,-0.93, -1.03, 2.30, 2.12, 1.56, 6.94, repro,
2007-11-05,-0.92, -0.85, -2.19, 2.11, 1.56, 6.91, repro,
2007-11-06,-0.56, -0.81, -2.50, 2.17, 1.65, 7.39, repro,
2007-11-07,-1.10, 0.01, 2.79, 2.11, 1.56, 6.89, repro,
2007-11-08,-1.07, -1.43, 5.41, 2.17, 1.60, 7.08, repro,
2007-11-09,0.34, 0.21, 3.50, 2.18, 1.60, 7.07, repro,
2007-11-10,-1.23, -1.99, 0.82, 2.11, 1.55, 6.89, repro,
2007-11-11,-1.13, -0.12, 3.65, 2.11, 1.56, 6.95, repro,
2007-11-12,-0.22, -1.36, 12.22, 2.11, 1.56, 6.93, repro,
2007-11-13,5.68, 0.69, 8.70, 2.12, 1.56, 6.94, repro,
2007-11-14,-1.61, -1.25, -4.43, 2.15, 1.57, 6.98, repro,
2007-11-15,1.07, -0.77, 3.48, 2.15, 1.58, 7.04, repro,
2007-11-16,-2.66, -0.67, 4.52, 2.15, 1.57, 7.03, repro,
2007-11-17,0.52, -0.48, 2.32, 2.11, 1.55, 6.92, repro,
2007-11-18,1.73, -1.24, 3.94, 2.13, 1.57, 7.02, repro,
2007-11-19,-0.36, -0.46, 2.31, 2.14, 1.56, 6.96, repro,
2007-11-20,-0.15, -0.87, -2.44, 2.20, 1.64, 7.20, repro,
2007-11-21,-0.47, -1.43, -6.07, 2.25, 1.69, 7.46, repro,
2007-11-22,0.11, -1.59, -8.95, 2.18, 1.61, 7.11, repro,
2007-11-23,0.18, -1.29, -5.06, 2.22, 1.69, 7.40, repro,
2007-11-24,0.35, -0.91, 0.07, 2.21, 1.65, 7.20, repro,
2007-11-25,0.29, -2.43, 0.41, 2.22, 1.65, 7.24, repro,
2007-11-26,-1.19, -1.23, -6.92, 2.31, 1.71, 7.56, repro,
2007-11-27,-0.54, -1.08, 1.05, 2.22, 1.68, 7.31, repro,
2007-11-28,-0.31, -2.11, -4.38, 2.20, 1.66, 7.22, repro,
2007-11-29,0.82, -2.04, -5.06, 2.28, 1.67, 7.43, repro,
2007-11-30,0.13, -1.90, -4.84, 2.22, 1.68, 7.29, repro,
2007-12-01,-0.19, -1.81, 5.58, 2.29, 1.75, 7.71, repro,
2007-12-02,-0.67, 0.48, 4.76, 2.24, 1.69, 7.58, repro,
2007-12-03,4.72, 2.35, 5.02, 2.34, 1.73, 7.83, repro,
2007-12-04,2.45, 2.06, -7.27, 2.50, 1.95, 8.53, repro,
2007-12-05,-0.38, -1.35, 1.93, 2.46, 1.93, 8.36, repro,
2007-12-06,0.93, -1.39, 0.38, 2.56, 2.05, 8.79, repro,
2007-12-07,0.21, -2.08, 2.06, 2.47, 1.94, 8.39, repro,
2007-12-08,-2.98, -0.63, -0.84, 2.30, 1.74, 7.48, repro,
2007-12-09,-1.80, -3.17, -6.96, 2.60, 2.25, 9.13, repro,
2007-12-10,-0.47, -1.51, -4.28, 2.23, 1.70, 7.35, repro,
2007-12-11,-0.05, -1.19, -5.17, 2.28, 1.73, 7.52, repro,
2007-12-12,0.40, -2.59, -6.18, 2.33, 1.73, 7.67, repro,
2007-12-13,0.84, -1.92, -11.50, 2.27, 1.69, 7.35, repro,
2007-12-14,0.04, -1.21, -3.77, 2.23, 1.66, 7.27, repro,
2007-12-15,1.31, -0.57, 2.79, 2.23, 1.64, 7.21, repro,
2007-12-16,0.71, -1.36, -3.44, 2.17, 1.58, 7.05, repro,
2007-12-17,1.33, -0.48, 10.81, 2.22, 1.62, 7.14, repro,
2007-12-18,-0.51, -3.00, 6.41, 2.18, 1.59, 7.11, repro,
2007-12-19,-1.77, -0.65, 6.78, 2.22, 1.63, 7.29, repro,
2007-12-20,-0.54, -0.42, 9.86, 2.20, 1.60, 7.15, repro,
2007-12-21,0.95, -1.78, -3.31, 2.36, 1.77, 7.94, repro,
2007-12-22,0.43, -2.72, -7.16, 2.25, 1.67, 7.48, repro,
2007-12-23,0.01, -0.80, -6.05, 2.22, 1.64, 7.30, repro,
2007-12-24,0.16, -0.72, 6.21, 2.21, 1.61, 7.22, repro,
2007-12-25,0.78, -1.59, -4.00, 2.27, 1.68, 7.42, repro,
2007-12-26,-0.13, -0.73, -1.14, 2.21, 1.61, 7.22, repro,
2007-12-27,1.00, -1.48, 0.19, 2.22, 1.63, 7.31, repro,
2007-12-28,-0.52, -1.04, 0.65, 2.22, 1.62, 7.25, repro,
2007-12-29,-0.15, -1.53, -0.66, 2.22, 1.59, 7.18, repro,
2007-12-30,0.84, -2.58, 0.81, 2.27, 1.65, 7.43, repro,
2007-12-31,1.02, -0.62, -12.30, 2.19, 1.57, 7.07, repro,
2008-01-01,0.21, -0.75, -11.18, 2.17, 1.57, 7.08, repro,
2008-01-02,0.48, -0.51, -1.51, 2.15, 1.55, 6.98, repro,
2008-01-03,-4.21, 0.41, 2.29, 2.14, 1.52, 6.92, repro,
2008-01-04,-8.71, -1.03, -1.97, 2.17, 1.53, 6.99, repro,
2008-01-05,-2.97, 0.34, 5.26, 2.19, 1.56, 7.11, repro,
2008-01-06,-1.52, -1.38, 7.54, 2.14, 1.54, 6.91, repro,
2008-01-07,-0.78, -1.95, 6.78, 2.16, 1.55, 7.02, repro,
2008-01-08,-0.54, -0.73, 4.09, 2.17, 1.54, 6.98, repro,
2008-01-09,-1.24, -0.58, 3.51, 2.21, 1.55, 7.11, repro,
2008-01-10,-0.17, -0.04, 1.95, 2.17, 1.55, 7.00, repro,
2008-01-11,-1.65, -0.93, -2.55, 2.15, 1.54, 6.94, repro,
2008-01-12,-1.04, -1.06, -5.77, 2.13, 1.54, 6.93, repro,
2008-01-13,-0.83, -0.44, -11.70, 2.12, 1.54, 6.88, repro,
2008-01-14,-0.57, -1.51, -2.02, 2.13, 1.55, 6.94, repro,
2008-01-15,0.90, -0.23, -0.27, 2.15, 1.55, 6.96, repro,
2008-01-16,-0.01, -1.49, -11.02, 2.19, 1.57, 7.06, repro,
2008-01-17,0.18, -1.37, -6.45, 2.17, 1.56, 7.05, repro,
2008-01-18,-0.80, -1.33, -8.36, 2.15, 1.58, 7.08, repro,
2008-01-19,0.41, -0.89, -8.69, 2.13, 1.55, 6.94, repro,
2008-01-20,-1.23, 0.04, -1.80, 2.14, 1.55, 6.94, repro,
2008-01-21,0.01, -0.54, -4.17, 2.13, 1.54, 6.90, repro,
2008-01-22,-0.68, -0.24, -8.95, 2.13, 1.54, 6.91, repro,
2008-01-23,-0.43, 0.01, -7.37, 2.13, 1.55, 6.93, repro,
2008-01-24,-0.48, -0.64, 2.96, 2.13, 1.54, 6.99, repro,
2008-01-25,0.84, -0.26, 1.76, 2.13, 1.55, 6.94, repro,
2008-01-26,-1.55, -0.49, 8.63, 2.13, 1.55, 6.90, repro,
2008-01-27,-2.98, 2.52, 1.31, 2.14, 1.55, 6.94, repro,
2008-01-28,-0.23, -0.47, 10.02, 2.13, 1.54, 6.89, repro,
2008-01-29,-0.22, -0.53, 8.97, 2.23, 1.66, 7.35, repro,
2008-01-30,-0.05, -0.78, 1.09, 2.24, 1.62, 7.25, repro,
2008-01-31,-0.07, 0.14, 5.61, 2.12, 1.54, 6.86, repro,
2008-02-01,-0.98, -0.74, -5.18, 2.13, 1.54, 6.90, repro,
2008-02-02,-0.11, -0.54, -0.92, 2.12, 1.54, 6.89, repro,
2008-02-03,0.61, -0.08, -2.89, 2.14, 1.55, 6.96, repro,
2008-02-04,0.98, -0.59, -3.71, 2.12, 1.54, 6.94, repro,
2008-02-05,0.55, -0.53, 0.45, 2.18, 1.61, 7.14, repro,
2008-02-06,-0.33, -1.00, -2.91, 2.19, 1.61, 7.11, repro,
2008-02-07,-1.32, -0.10, -2.45, 2.15, 1.57, 7.03, repro,
2008-02-08,-1.33, 0.57, -5.80, 2.12, 1.55, 6.94, repro,
2008-02-09,-0.39, 0.19, -5.98, 2.11, 1.54, 6.91, repro,
2008-02-10,0.17, 0.19, -1.81, 2.12, 1.54, 6.91, repro,
2008-02-11,-0.78, 0.06, -6.68, 2.13, 1.54, 6.89, repro,
2008-02-12,-0.57, 0.05, -8.00, 2.14, 1.54, 6.92, repro,
2008-02-13,-0.63, -0.23, -2.41, 2.12, 1.54, 6.88, repro,
2008-02-14,0.17, -0.55, -8.01, 2.13, 1.54, 6.92, repro,
2008-02-15,-0.16, -0.30, -8.46, 2.15, 1.59, 7.10, repro,
2008-02-16,-1.07, -0.79, -6.40, 2.13, 1.53, 6.87, repro,
2008-02-17,0.10, -0.41, -9.50, 2.13, 1.55, 6.94, repro,
2008-02-18,-0.71, -0.13, -7.75, 2.13, 1.54, 6.92, repro,
2008-02-19,-0.79, -0.30, -5.10, 2.12, 1.55, 6.91, repro,
2008-02-20,-0.87, -0.36, -3.14, 2.13, 1.55, 6.92, repro,
2008-02-21,-0.11, -0.10, -0.34, 2.13, 1.55, 6.93, repro,
2008-02-22,-1.20, -1.79, 8.08, 2.12, 1.53, 6.86, repro,
2008-02-23,-1.01, -0.37, -1.08, 2.18, 1.58, 7.08, repro,
2008-02-24,2.03, 0.88, 6.25, 2.13, 1.55, 6.96, repro,
2008-02-25,-1.08, -0.23, -3.94, 2.12, 1.55, 6.92, repro,
2008-02-26,-0.05, -0.41, -16.27, 2.13, 1.54, 6.93, repro,
2008-02-27,-1.19, -0.58, -8.81, 2.18, 1.57, 7.05, repro,
2008-02-28,0.13, -0.71, -6.88, 2.13, 1.53, 6.87, repro,
2008-02-29,-1.01, 0.02, -5.10, 2.15, 1.55, 6.98, repro,
2008-03-01,-2.78, 0.09, -0.97, 2.13, 1.55, 6.98, repro,
2008-03-02,-0.10, -0.17, -3.93, 2.10, 1.55, 6.90, repro,
2008-03-03,-1.51, -1.29, -7.19, 2.14, 1.53, 6.90, repro,
2008-03-04,-0.86, -0.43, -8.28, 2.14, 1.54, 6.92, repro,
2008-03-05,-0.22, -0.67, -10.75, 2.21, 1.65, 7.32, repro,
2008-03-06,-0.41, -0.53, -12.82, 2.16, 1.59, 7.11, repro,
2008-03-07,-0.37, -0.43, -11.09, 2.13, 1.56, 6.96, repro,
2008-03-08,-1.43, -0.88, -6.15, 2.21, 1.59, 7.22, repro,
2008-03-09,-1.63, -0.56, -5.67, 2.18, 1.57, 7.08, repro,
2008-03-10,-1.04, -0.65, -9.89, 2.13, 1.54, 6.88, repro,
2008-03-11,0.83, -0.46, -11.57, 2.15, 1.55, 7.02, repro,
2008-03-12,0.69, -0.91, -7.84, 2.16, 1.58, 7.12, repro,
2008-03-13,-0.84, -0.96, 0.59, 2.15, 1.59, 7.13, repro,
2008-03-14,-2.16, -0.23, -4.17, 2.15, 1.58, 7.05, repro,
2008-03-15,-1.10, -0.73, -7.52, 2.16, 1.57, 7.04, repro,
2008-03-16,0.71, -0.53, -6.42, 2.22, 1.62, 7.29, repro,
2008-03-17,-0.35, -0.92, -8.41, 2.27, 1.71, 7.65, repro,
2008-03-18,-0.18, -0.31, -7.49, 2.17, 1.61, 7.20, repro,
2008-03-19,-0.10, 0.52, -3.19, 2.16, 1.57, 7.08, repro,
2008-03-20,-0.57, -0.85, -7.80, 2.17, 1.57, 7.07, repro,
2008-03-21,-0.79, -0.33, -6.87, 2.16, 1.57, 7.05, repro,
2008-03-22,0.82, -0.86, -15.57, 2.18, 1.58, 7.11, repro,
2008-03-23,1.39, -0.58, -8.09, 2.16, 1.57, 7.04, repro,
2008-03-24,1.74, 0.69, -2.76, 2.15, 1.57, 7.04, repro,
2008-03-25,0.35, -0.44, -8.66, 2.22, 1.62, 7.23, repro,
2008-03-26,0.31, -0.77, -3.86, 2.20, 1.60, 7.16, repro,
2008-03-27,0.01, -1.48, -8.92, 2.18, 1.60, 7.13, repro,
2008-03-28,0.68, -1.72, -4.50, 2.17, 1.58, 7.01, repro,
2008-03-29,-0.61, 0.43, -2.82, 2.15, 1.55, 6.95, repro,
2008-03-30,1.37, -0.56, -7.19, 2.18, 1.56, 7.11, repro,
2008-03-31,0.23, -1.49, -10.20, 2.17, 1.54, 7.02, repro,
2008-04-01,-0.63, -0.67, -8.38, 2.14, 1.54, 6.96, repro,
2008-04-02,-0.37, -0.95, -6.93, 2.21, 1.55, 7.08, repro,
2008-04-03,-0.32, -1.09, -6.40, 2.12, 1.53, 6.89, repro,
2008-04-04,0.77, -0.04, -4.95, 2.17, 1.56, 7.08, repro,
2008-04-05,-0.39, 0.17, -2.83, 2.18, 1.56, 7.10, repro,
2008-04-06,-0.28, -0.51, -8.23, 2.17, 1.55, 7.04, repro,
2008-04-07,-0.92, -0.85, -9.92, 2.15, 1.55, 7.02, repro,
2008-04-08,-0.08, -1.40, -5.78, 2.13, 1.53, 6.91, repro,
2008-04-09,-0.45, -1.10, -6.97, 2.13, 1.54, 6.99, repro,
2008-04-10,0.42, -0.99, -12.24, 2.19, 1.56, 7.11, repro,
2008-04-11,0.96, -0.88, -12.52, 2.18, 1.56, 7.14, repro,
2008-04-12,-0.20, -0.71, -15.43, 2.16, 1.55, 7.08, repro,
2008-04-13,0.36, -0.55, -8.47, 2.15, 1.54, 7.02, repro,
2008-04-14,0.27, -0.86, -9.17, 2.15, 1.55, 7.02, repro,
2008-04-15,0.56, -1.85, 0.72, 2.20, 1.60, 7.17, repro,
2008-04-16,-0.50, -1.76, -4.74, 2.22, 1.62, 7.27, repro,
2008-04-17,-0.86, -0.84, -9.39, 2.16, 1.55, 7.10, repro,
2008-04-18,0.90, -1.30, -7.44, 2.16, 1.54, 7.04, repro,
2008-04-19,0.73, -1.21, -2.45, 2.16, 1.54, 7.08, repro,
2008-04-20,-0.01, -1.03, -7.26, 2.17, 1.54, 7.06, repro,
2008-04-21,-0.13, -1.36, -7.77, 2.19, 1.55, 7.14, repro,
2008-04-22,1.23, 0.48, -3.62, 2.19, 1.56, 7.18, repro,
2008-04-23,1.52, -0.59, -5.74, 2.23, 1.61, 7.32, repro,
2008-04-24,0.27, -0.75, -8.80, 2.18, 1.56, 7.18, repro,
2008-04-25,-0.13, -1.49, -7.09, 2.18, 1.54, 7.12, repro,
2008-04-26,0.49, -0.92, -12.88, 2.30, 1.62, 7.36, repro,
2008-04-27,-0.64, -0.76, -15.52, 2.28, 1.59, 7.28, repro,
2008-04-28,-0.17, 0.20, -11.97, 2.25, 1.56, 7.10, repro,
2008-04-29,0.45, -0.58, -6.63, 2.34, 1.59, 7.39, repro,
2008-04-30,0.64, -1.04, -5.83, 2.22, 1.57, 7.22, repro,
2008-05-01,-0.48, -1.30, -4.30, 2.23, 1.57, 7.17, repro,
2008-05-02,-1.31, -0.25, -9.06, 2.25, 1.61, 7.33, repro,
2008-05-03,-0.44, -1.30, -5.22, 2.22, 1.58, 7.19, repro,
2008-05-04,-0.20, -1.07, -5.83, 2.15, 1.52, 6.95, repro,
2008-05-05,-1.18, -0.41, -7.69, 2.21, 1.57, 7.17, repro,
2008-05-06,0.13, -1.04, -8.63, 2.24, 1.57, 7.22, repro,
2008-05-07,-0.54, -1.22, -7.63, 2.21, 1.56, 7.15, repro,
2008-05-08,-0.08, -1.60, -10.25, 2.19, 1.57, 7.14, repro,
2008-05-09,0.19, -1.42, -7.12, 2.19, 1.56, 7.10, repro,
2008-05-10,1.48, -0.51, -2.39, 2.16, 1.52, 6.99, repro,
2008-05-11,-0.30, -0.28, 2.61, 2.21, 1.56, 7.16, repro,
2008-05-12,-1.34, -0.97, -0.55, 2.27, 1.58, 7.21, repro,
2008-05-13,-1.12, -0.67, -1.25, 2.19, 1.55, 7.05, repro,
2008-05-14,-1.09, -1.12, -3.35, 2.18, 1.54, 7.01, repro,
2008-05-15,-2.52, -0.91, -9.82, 2.17, 1.53, 6.99, repro,
2008-05-16,-0.97, -0.30, -13.97, 2.18, 1.53, 7.01, repro,
2008-05-17,-1.84, -0.49, -11.26, 2.21, 1.56, 7.14, repro,
2008-05-18,-0.47, -0.55, -1.71, 2.26, 1.57, 7.19, repro,
2008-05-19,0.68, -0.34, -5.79, 2.17, 1.54, 7.06, repro,
2008-05-20,-1.44, -1.80, -4.98, 2.17, 1.54, 7.05, repro,
2008-05-21,0.92, -1.12, 0.37, 2.18, 1.54, 7.06, repro,
2008-05-22,-0.08, -2.13, -2.85, 2.18, 1.57, 7.19, repro,
2008-05-23,-1.07, -0.90, 1.25, 2.20, 1.57, 7.16, repro,
2008-05-24,-1.74, -2.01, -2.08, 2.18, 1.54, 7.03, repro,
2008-05-25,-1.75, -0.93, -4.47, 2.18, 1.55, 7.11, repro,
2008-05-26,-1.13, -1.40, -2.34, 2.19, 1.58, 7.24, repro,
2008-05-27,-0.31, 0.11, 0.93, 2.17, 1.54, 7.06, repro,
2008-05-28,-0.06, -0.35, -6.74, 2.17, 1.53, 7.00, repro,
2008-05-29,-0.43, -0.70, -3.81, 2.23, 1.59, 7.21, repro,
2008-05-30,-0.61, -0.01, -6.70, 2.17, 1.53, 7.02, repro,
2008-05-31,-0.72, -0.71, -2.21, 2.18, 1.55, 7.13, repro,
2008-06-01,-0.25, -0.27, -1.01, 2.37, 1.70, 7.73, repro,
2008-06-02,0.40, -1.10, -9.19, 2.35, 1.65, 7.65, repro,
2008-06-03,-0.35, -1.17, -6.09, 2.24, 1.59, 7.28, repro,
2008-06-04,1.69, -0.59, -3.59, 2.19, 1.54, 7.09, repro,
2008-06-05,-0.33, -0.20, -2.90, 2.18, 1.55, 7.08, repro,
2008-06-06,0.44, -0.16, -5.66, 2.22, 1.59, 7.27, repro,
2008-06-07,0.10, -1.07, 2.48, 2.23, 1.61, 7.23, repro,
2008-06-08,-0.18, -0.20, -4.35, 2.23, 1.59, 7.19, repro,
2008-06-09,-0.04, -0.12, -4.53, 2.21, 1.58, 7.19, repro,
2008-06-10,0.63, 0.35, -7.36, 2.18, 1.54, 7.11, repro,
2008-06-11,0.74, -0.97, -4.83, 2.18, 1.55, 7.12, repro,
2008-06-12,-0.64, -0.52, -4.06, 2.18, 1.56, 7.14, repro,
2008-06-13,0.55, -0.50, -8.68, 2.18, 1.54, 7.06, repro,
2008-06-14,1.28, 0.08, -6.40, 2.23, 1.57, 7.18, repro,
2008-06-15,0.76, 0.76, -8.88, 2.25, 1.58, 7.29, repro,
2008-06-16,-0.83, 0.05, -5.19, 2.19, 1.55, 7.13, repro,
2008-06-17,-0.34, 0.59, -4.72, 2.17, 1.54, 7.09, repro,
2008-06-18,0.22, -0.47, -10.69, 2.19, 1.55, 7.11, repro,
2008-06-19,0.91, -0.40, -5.31, 2.25, 1.64, 7.54, repro,
2008-06-20,1.33, 0.93, -11.34, 2.18, 1.54, 7.05, repro,
2008-06-21,-0.70, 2.20, -10.28, 2.19, 1.55, 7.13, repro,
2008-06-22,-0.42, 0.38, -9.07, 2.17, 1.54, 7.05, repro,
2008-06-23,0.39, 0.58, -3.76, 2.17, 1.54, 7.05, repro,
2008-06-24,-0.92, 0.69, -4.62, 2.19, 1.54, 7.06, repro,
2008-06-25,-0.22, 0.70, -4.50, 2.18, 1.54, 7.04, repro,
2008-06-26,1.35, -0.69, -1.16, 2.21, 1.58, 7.21, repro,
2008-06-27,0.39, -0.05, -6.11, 2.17, 1.54, 7.02, repro,
2008-06-28,0.51, -0.69, -8.67, 2.18, 1.55, 7.06, repro,
2008-06-29,0.14, -0.04, -1.44, 2.22, 1.61, 7.23, repro,
2008-06-30,1.65, 0.30, -1.76, 2.21, 1.55, 7.17, repro,
2008-07-01,1.67, -1.12, -6.96, 2.19, 1.54, 7.06, repro,
2008-07-02,0.21, -0.27, -7.12, 2.18, 1.55, 7.09, repro,
2008-07-03,1.33, -1.90, 3.25, 2.26, 1.63, 7.48, repro,
2008-07-04,1.74, 0.39, -4.11, 2.20, 1.56, 7.14, repro,
2008-07-05,0.83, -0.01, -5.69, 2.28, 1.65, 7.39, repro,
2008-07-06,1.78, 0.69, 1.93, 2.32, 1.66, 7.58, repro,
2008-07-07,0.24, -0.86, 2.58, 2.21, 1.59, 7.22, repro,
2008-07-08,-0.59, -1.19, -0.36, 2.16, 1.53, 7.00, repro,
2008-07-09,1.55, -1.91, -5.88, 2.16, 1.53, 6.98, repro,
2008-07-10,1.78, -0.63, 2.21, 2.23, 1.58, 7.19, repro,
2008-07-11,-0.00, 0.04, 1.40, 2.26, 1.58, 7.28, repro,
2008-07-12,1.44, -0.82, -0.97, 2.19, 1.54, 7.07, repro,
2008-07-13,1.12, -1.16, -1.66, 2.18, 1.55, 7.12, repro,
2008-07-14,1.12, -0.34, 1.79, 2.18, 1.55, 7.07, repro,
2008-07-15,-1.66, -0.43, -1.39, 2.19, 1.55, 7.11, repro,
2008-07-16,-0.85, -0.60, -5.45, 2.19, 1.54, 7.05, repro,
2008-07-17,1.35, -0.48, 0.36, 2.20, 1.55, 7.11, repro,
2008-07-18,1.40, -0.18, -0.90, 2.31, 1.59, 7.40, repro,
2008-07-19,0.87, -0.26, 4.93, 2.21, 1.55, 7.12, repro,
2008-07-20,0.05, -0.82, 1.03, 2.17, 1.54, 7.01, repro,
2008-07-21,0.06, -0.87, 9.41, 2.19, 1.54, 7.03, repro,
2008-07-22,-1.21, 0.02, 2.32, 2.21, 1.56, 7.16, repro,
2008-07-23,0.64, 0.16, 4.67, 2.23, 1.55, 7.12, repro,
2008-07-24,-0.12, -0.23, 1.35, 2.17, 1.54, 7.03, repro,
2008-07-25,0.86, -0.07, -2.39, 2.16, 1.53, 6.94, repro,
2008-07-26,0.45, -0.90, 4.73, 2.21, 1.56, 7.12, repro,
2008-07-27,-0.69, -0.35, 7.17, 2.17, 1.54, 7.04, repro,
2008-07-28,0.43, 0.23, 10.59, 2.28, 1.57, 7.21, repro,
2008-07-29,-0.80, -0.03, 12.60, 2.24, 1.56, 7.25, repro,
2008-07-30,0.20, 0.11, 12.12, 2.21, 1.55, 7.17, repro,
2008-07-31,0.17, -0.52, 4.98, 2.15, 1.53, 6.97, repro,
2008-08-01,-1.25, -1.13, 6.47, 2.17, 1.53, 7.01, repro,
2008-08-02,-0.27, -0.27, 5.84, 2.19, 1.54, 7.06, repro,
2008-08-03,-0.10, -0.10, 10.11, 2.22, 1.58, 7.23, repro,
2008-08-04,1.13, -0.49, 3.04, 2.16, 1.53, 7.00, repro,
2008-08-05,-0.64, -0.28, 4.96, 2.17, 1.54, 6.99, repro,
2008-08-06,-1.15, 0.17, 4.20, 2.23, 1.55, 7.10, repro,
2008-08-07,-3.43, -0.79, 17.11, 2.54, 1.91, 8.53, repro,
2008-08-08,-0.39, 1.85, 8.18, 2.31, 1.63, 7.44, repro,
2008-08-09,0.56, -0.37, 6.04, 2.24, 1.56, 7.14, repro,
2008-08-10,-0.58, -1.29, 3.80, 2.19, 1.54, 7.01, repro,
2008-08-11,0.52, -0.70, -0.03, 2.22, 1.54, 7.07, repro,
2008-08-12,-0.07, -0.60, 5.20, 2.28, 1.59, 7.35, repro,
2008-08-13,0.42, -1.58, 3.06, 2.23, 1.55, 7.16, repro,
2008-08-14,0.51, -1.05, 2.62, 2.23, 1.56, 7.15, repro,
2008-08-15,0.32, -0.57, 1.50, 2.23, 1.55, 7.15, repro,
2008-08-16,-1.39, -0.64, 4.42, 2.27, 1.61, 7.26, repro,
2008-08-17,-2.14, -0.76, 16.47, 2.23, 1.56, 7.16, repro,
2008-08-18,-1.73, -0.59, 12.15, 2.27, 1.60, 7.37, repro,
2008-08-19,0.16, -0.90, 18.15, 2.24, 1.56, 7.12, repro,
2008-08-20,0.39, 1.26, 15.77, 2.25, 1.57, 7.25, repro,
2008-08-21,-4.52, -2.85, 4.25, 2.23, 1.55, 7.11, repro,
2008-08-22,-0.84, -1.83, 6.56, 2.22, 1.55, 7.09, repro,
2008-08-23,-1.22, -1.14, 4.80, 2.22, 1.55, 7.09, repro,
2008-08-24,0.68, -1.73, 8.76, 2.26, 1.58, 7.21, repro,
2008-08-25,-0.20, -1.02, 6.03, 2.26, 1.57, 7.22, repro,
2008-08-26,-1.15, -0.46, 9.55, 2.23, 1.55, 7.09, repro,
2008-08-27,-1.66, -1.59, 1.26, 2.24, 1.57, 7.15, repro,
2008-08-28,0.45, -1.61, 7.68, 2.39, 1.66, 7.59, repro,
2008-08-29,0.16, 0.06, 2.86, 2.25, 1.58, 7.23, repro,
2008-08-30,-0.40, -2.05, 18.06, 2.25, 1.58, 7.20, repro,
2008-08-31,1.27, -0.43, 4.92, 2.27, 1.58, 7.25, repro,
2008-09-01,0.50, -1.81, 3.58, 2.24, 1.56, 7.14, repro,
2008-09-02,0.23, -0.94, -1.54, 2.25, 1.58, 7.20, repro,
2008-09-03,0.17, -1.57, 3.50, 2.25, 1.59, 7.23, repro,
2008-09-04,-0.64, -1.66, 1.67, 2.39, 1.68, 7.68, repro,